Location: Gellin
(53.4498°N, 14.3207°E)
Time: 22:16:57
(UTC+00:00)

Cosmos 1610 Rocket - Pass Details

Date: 03 March 2021
Orbit: 953 x 1002 km, 82.9° (Epoch: 12 April)

Event Time Altitude Azimuth Distance (km) Brightness Sun altitude
Rises 17:39:27 0° 176° (S) 3,642 7.5 -9.0°
Reaches altitude 10° 17:41:57 10° 174° (S) 2,705 6.8 -9.3°
Maximum altitude 17:48:03 64° 94° (E) 1,081 4.5 -10.2°
Drops below altitude 10° 17:54:17 10° 15° (NNE) 2,757 6.8 -11.2°
Sets 17:56:51 0° 13° (NNE) 3,717 7.5 -11.5°
